| time (UTC) | temp C | wind direction | speed KPH | gust KPH | rain 1hr cm | rain 24hr cm | rain mn cm | humidity % | barometer mb |
| 20260902204655 | 13 | 278 | 0.0 | 1.6 | 0.00 | 0.00 | 0.00 | 75 | 1007.4 |
| 20260902204155 | 13 | 278 | 0.0 | 1.6 | 0.00 | 0.00 | 0.00 | 76 | 1007.4 |
| 20260902203916 | 13 | 278 | 0.0 | 1.6 | 0.00 | 0.00 | 0.00 | 76 | 1007.4 |
| 20260902203416 | 13 | 278 | 0.0 | 3.2 | 0.00 | 0.00 | 0.00 | 74 | 1007.5 |
| 20260902202655 | 13 | 278 | 0.0 | 3.2 | 0.00 | 0.00 | 0.00 | 72 | 1007.4 |
| 20260902202414 | 13 | 278 | 0.0 | 0.0 | 0.00 | 0.00 | 0.00 | 72 | 1007.4 |
| 20260902201655 | 13 | 278 | 0.0 | 0.0 | 0.00 | 0.00 | 0.00 | 71 | 1007.4 |
| 20260902201155 | 13 | 278 | 0.0 | 0.0 | 0.00 | 0.00 | 0.00 | 71 | 1007.4 |
| 20260902200655 | 13 | 278 | 0.0 | 0.0 | 0.00 | 0.00 | 0.00 | 70 | 1007.5 |
| 20260902200154 | 13 | 278 | 0.0 | 1.6 | 0.00 | 0.00 | 0.00 | 69 | 1007.4 |
| 20260902195655 | 13 | 278 | 0.0 | 1.6 | 0.00 | 0.00 | 0.00 | 69 | 1007.5 |
| 20260902195154 | 14 | 278 | 0.0 | 0.0 | 0.00 | 0.00 | 0.00 | 67 | 1007.4 |
| 20260902194655 | 14 | 278 | 0.0 | 0.0 | 0.00 | 0.00 | 0.00 | 67 | 1007.4 |
| 20260902194154 | 14 | 278 | 0.0 | 0.0 | 0.00 | 0.00 | 0.00 | 66 | 1007.4 |
| 20260902193654 | 15 | 278 | 0.0 | 1.6 | 0.00 | 0.00 | 0.00 | 65 | 1007.4 |
| 20260902193154 | 15 | 278 | 0.0 | 4.8 | 0.00 | 0.00 | 0.00 | 65 | 1007.4 |
| 20260902192654 | 15 | 278 | 1.6 | 4.8 | 0.00 | 0.00 | 0.00 | 64 | 1007.4 |
| 20260902192154 | 15 | 281 | 1.6 | 3.2 | 0.00 | 0.00 | 0.00 | 64 | 1007.4 |
| 20260902191654 | 15 | 281 | 1.6 | 4.8 | 0.00 | 0.00 | 0.00 | 63 | 1007.4 |
| 20260902191153 | 15 | 274 | 3.2 | 4.8 | 0.00 | 0.00 | 0.00 | 63 | 1007.4 |
| 20260902191131 | 15 | 282 | 1.6 | 4.8 | 0.00 | 0.00 | 0.00 | 62 | 1007.4 |
| 20260902190416 | 16 | 254 | 3.2 | 4.8 | 0.00 | 0.00 | 0.00 | 62 | 1007.4 |
| 20260902185653 | 16 | 254 | 1.6 | 3.2 | 0.00 | 0.00 | 0.00 | 61 | 1007.4 |
| 20260902185640 | 16 | 254 | 1.6 | 6.4 | 0.00 | 0.00 | 0.00 | 61 | 1007.5 |
| 20260902184654 | 16 | 272 | 0.0 | 6.4 | 0.00 | 0.00 | 0.00 | 61 | 1007.4 |
| 20260902184153 | 16 | 296 | 3.2 | 6.4 | 0.00 | 0.00 | 0.00 | 60 | 1007.4 |
| 20260902183909 | 16 | 285 | 3.2 | 11.3 | 0.00 | 0.00 | 0.00 | 59 | 1007.4 |
| 20260902183152 | 16 | 300 | 6.4 | 11.3 | 0.00 | 0.00 | 0.00 | 58 | 1007.4 |
| 20260902182653 | 17 | 271 | 6.4 | 11.3 | 0.00 | 0.00 | 0.00 | 58 | 1007.3 |
| 20260902182152 | 17 | 268 | 4.8 | 9.7 | 0.00 | 0.00 | 0.00 | 58 | 1007.3 |
| 20260902181653 | 17 | 298 | 3.2 | 11.3 | 0.00 | 0.00 | 0.00 | 57 | 1007.3 |
| 20260902181153 | 17 | 288 | 6.4 | 16.1 | 0.00 | 0.00 | 0.00 | 57 | 1007.3 |
| 20260902180652 | 17 | 285 | 6.4 | 16.1 | 0.00 | 0.00 | 0.00 | 56 | 1007.2 |
| 20260902180418 | 17 | 302 | 4.8 | 16.1 | 0.00 | 0.00 | 0.00 | 57 | 1007.2 |
| 20260902175654 | 17 | 288 | 8.0 | 19.3 | 0.00 | 0.00 | 0.00 | 56 | 1007.2 |
| 20260902175152 | 17 | 262 | 9.7 | 19.3 | 0.00 | 0.00 | 0.00 | 56 | 1007.2 |
| 20260902174652 | 18 | 296 | 4.8 | 16.1 | 0.00 | 0.00 | 0.00 | 57 | 1007.1 |
| 20260902174152 | 18 | 275 | 6.4 | 11.3 | 0.00 | 0.00 | 0.00 | 57 | 1007.1 |
| 20260902173652 | 18 | 310 | 4.8 | 11.3 | 0.00 | 0.00 | 0.00 | 57 | 1006.9 |
| 20260902173153 | 18 | 292 | 4.8 | 11.3 | 0.00 | 0.00 | 0.00 | 56 | 1006.9 |
| 20260902172652 | 18 | 245 | 6.4 | 11.3 | 0.00 | 0.00 | 0.00 | 55 | 1006.8 |
| 20260902172152 | 18 | 264 | 6.4 | 14.5 | 0.00 | 0.00 | 0.00 | 55 | 1006.8 |
| 20260902171652 | 19 | 279 | 6.4 | 17.7 | 0.00 | 0.00 | 0.00 | 54 | 1006.8 |
| 20260902171152 | 19 | 251 | 4.8 | 19.3 | 0.00 | 0.00 | 0.00 | 54 | 1006.7 |
| 20260902170651 | 19 | 298 | 9.7 | 22.5 | 0.00 | 0.00 | 0.00 | 54 | 1006.7 |
| 20260902170151 | 19 | 266 | 8.0 | 22.5 | 0.00 | 0.00 | 0.00 | 55 | 1006.7 |
| 20260902165911 | 20 | 258 | 8.0 | 16.1 | 0.00 | 0.00 | 0.00 | 56 | 1006.6 |
| 20260902165151 | 20 | 299 | 4.8 | 16.1 | 0.00 | 0.00 | 0.00 | 57 | 1006.6 |
| 20260902164912 | 20 | 310 | 8.0 | 20.9 | 0.00 | 0.00 | 0.00 | 56 | 1006.6 |
| 20260902164151 | 20 | 281 | 9.7 | 20.9 | 0.00 | 0.00 | 0.00 | 56 | 1006.5 |
| 20260902163651 | 20 | 288 | 9.7 | 20.9 | 0.00 | 0.00 | 0.00 | 57 | 1006.4 |
| 20260902163150 | 20 | 283 | 6.4 | 16.1 | 0.00 | 0.00 | 0.00 | 62 | 1006.4 |
| 20260902162650 | 20 | 228 | 4.8 | 16.1 | 0.00 | 0.00 | 0.00 | 64 | 1006.4 |
| 20260902162150 | 20 | 261 | 3.2 | 11.3 | 0.00 | 0.00 | 0.00 | 64 | 1006.4 |
| 20260902161650 | 20 | 261 | 1.6 | 8.0 | 0.00 | 0.00 | 0.00 | 65 | 1006.4 |
| 20260902161632 | 20 | 226 | 3.2 | 9.7 | 0.00 | 0.00 | 0.00 | 66 | 1006.4 |
| 20260902160916 | 20 | 235 | 4.8 | 9.7 | 0.00 | 0.00 | 0.00 | 66 | 1006.4 |
| 20260902160150 | 20 | 247 | 3.2 | 14.5 | 0.00 | 0.00 | 0.00 | 67 | 1006.4 |
| 20260902155650 | 20 | 241 | 6.4 | 14.5 | 0.00 | 0.00 | 0.00 | 67 | 1006.4 |
| 20260902155149 | 20 | 231 | 4.8 | 16.1 | 0.00 | 0.00 | 0.00 | 67 | 1006.4 |
| 20260902154649 | 20 | 213 | 6.4 | 16.1 | 0.00 | 0.00 | 0.00 | 68 | 1006.4 |
| 20260902154149 | 20 | 258 | 4.8 | 11.3 | 0.00 | 0.00 | 0.00 | 68 | 1006.4 |
| 20260902154135 | 20 | 247 | 3.2 | 17.7 | 0.00 | 0.00 | 0.00 | 67 | 1006.4 |
| 20260902153149 | 20 | 252 | 3.2 | 17.7 | 0.00 | 0.00 | 0.00 | 67 | 1006.5 |
| 20260902152649 | 20 | 221 | 3.2 | 14.5 | 0.00 | 0.00 | 0.00 | 67 | 1006.5 |
| 20260902152149 | 20 | 250 | 4.8 | 14.5 | 0.00 | 0.00 | 0.00 | 67 | 1006.6 |
| 20260902151913 | 20 | 276 | 4.8 | 14.5 | 0.00 | 0.00 | 0.00 | 68 | 1006.6 |
| 20260902151148 | 20 | 299 | 3.2 | 14.5 | 0.00 | 0.00 | 0.00 | 68 | 1006.7 |
| 20260902150915 | 20 | 266 | 6.4 | 14.5 | 0.00 | 0.00 | 0.00 | 68 | 1006.8 |
| 20260902150149 | 20 | 231 | 6.4 | 14.5 | 0.00 | 0.00 | 0.00 | 68 | 1006.8 |
| 20260902145648 | 20 | 275 | 8.0 | 14.5 | 0.00 | 0.00 | 0.00 | 68 | 1006.8 |
| 20260902145151 | 20 | 251 | 6.4 | 11.3 | 0.00 | 0.00 | 0.00 | 69 | 1006.8 |
| 20260902144649 | 20 | 265 | 3.2 | 17.7 | 0.00 | 0.00 | 0.00 | 69 | 1006.8 |
| 20260902144149 | 20 | 285 | 11.3 | 17.7 | 0.00 | 0.00 | 0.00 | 68 | 1006.9 |
| 20260902143915 | 21 | 271 | 6.4 | 20.9 | 0.00 | 0.00 | 0.00 | 68 | 1006.9 |
| 20260902143409 | 21 | 188 | 8.0 | 29.0 | 0.00 | 0.00 | 0.00 | 67 | 1006.9 |
| 20260902142648 | 21 | 292 | 6.4 | 29.0 | 0.00 | 0.00 | 0.00 | 67 | 1006.9 |
| 20260902142148 | 20 | 221 | 4.8 | 14.5 | 0.00 | 0.00 | 0.00 | 68 | 1006.9 |
| 20260902141648 | 20 | 274 | 8.0 | 22.5 | 0.00 | 0.00 | 0.00 | 67 | 1006.9 |
| 20260902141148 | 20 | 257 | 6.4 | 22.5 | 0.00 | 0.00 | 0.00 | 67 | 1006.9 |
| 20260902140647 | 20 | 262 | 4.8 | 14.5 | 0.00 | 0.00 | 0.00 | 69 | 1007.1 |
| 20260902140147 | 20 | 206 | 3.2 | 14.5 | 0.00 | 0.00 | 0.00 | 69 | 1007.1 |
| 20260902135647 | 20 | 266 | 4.8 | 14.5 | 0.00 | 0.00 | 0.00 | 69 | 1007.1 |
| 20260902135147 | 20 | 271 | 4.8 | 14.5 | 0.00 | 0.00 | 0.00 | 70 | 1007.3 |
| 20260902134645 | 20 | 268 | 3.2 | 16.1 | 0.00 | 0.00 | 0.00 | 70 | 1007.3 |
| 20260902134417 | 20 | 275 | 4.8 | 16.1 | 0.00 | 0.00 | 0.00 | 68 | 1007.3 |
| 20260902133647 | 20 | 286 | 4.8 | 20.9 | 0.00 | 0.00 | 0.00 | 68 | 1007.3 |
| 20260902133146 | 20 | 230 | 9.7 | 20.9 | 0.00 | 0.00 | 0.00 | 68 | 1007.4 |
| 20260902132646 | 20 | 261 | 8.0 | 16.1 | 0.00 | 0.00 | 0.00 | 69 | 1007.3 |
| 20260902132147 | 20 | 250 | 3.2 | 16.1 | 0.00 | 0.00 | 0.00 | 70 | 1007.4 |
| 20260902131647 | 20 | 262 | 6.4 | 16.1 | 0.00 | 0.00 | 0.00 | 69 | 1007.4 |
| 20260902131146 | 20 | 243 | 4.8 | 24.1 | 0.00 | 0.00 | 0.00 | 70 | 1007.4 |
| 20260902130646 | 20 | 274 | 4.8 | 24.1 | 0.00 | 0.00 | 0.00 | 70 | 1007.4 |
| 20260902130411 | 20 | 200 | 8.0 | 11.3 | 0.00 | 0.00 | 0.00 | 69 | 1007.5 |
| 20260902125907 | 20 | 264 | 6.4 | 14.5 | 0.00 | 0.00 | 0.00 | 70 | 1007.5 |
| 20260902125404 | 20 | 288 | 4.8 | 16.1 | 0.00 | 0.00 | 0.00 | 70 | 1007.5 |
| 20260902125137 | 20 | 254 | 4.8 | 16.1 | 0.00 | 0.00 | 0.00 | 70 | 1007.5 |
| 20260902124627 | 19 | 213 | 3.2 | 17.7 | 0.00 | 0.00 | 0.00 | 71 | 1007.6 |
| 20260902123646 | 19 | 269 | 8.0 | 17.7 | 0.00 | 0.00 | 0.00 | 71 | 1007.6 |
| 20260902123146 | 20 | 279 | 8.0 | 17.7 | 0.00 | 0.00 | 0.00 | 70 | 1007.7 |
| 20260902122645 | 20 | 353 | 6.4 | 17.7 | 0.00 | 0.00 | 0.00 | 70 | 1007.7 |
| 20260902122145 | 19 | 269 | 6.4 | 14.5 | 0.00 | 0.00 | 0.00 | 70 | 1007.7 |
| 20260902121908 | 19 | 264 | 6.4 | 16.1 | 0.00 | 0.00 | 0.00 | 71 | 1007.8 |
| 20260902121145 | 19 | 179 | 6.4 | 19.3 | 0.00 | 0.00 | 0.00 | 71 | 1007.8 |
| 20260902120645 | 19 | 275 | 11.3 | 19.3 | 0.00 | 0.00 | 0.00 | 69 | 1007.9 |
| 20260902120145 | 20 | 266 | 8.0 | 14.5 | 0.00 | 0.00 | 0.00 | 69 | 1007.9 |
| 20260902115645 | 20 | 283 | 3.2 | 11.3 | 0.00 | 0.00 | 0.00 | 70 | 1008.0 |
| 20260902115144 | 19 | 255 | 6.4 | 16.1 | 0.00 | 0.00 | 0.00 | 70 | 1007.9 |
| 20260902114646 | 19 | 250 | 6.4 | 16.1 | 0.00 | 0.00 | 0.00 | 70 | 1008.0 |
| 20260902114143 | 19 | 261 | 8.0 | 20.9 | 0.00 | 0.00 | 0.00 | 69 | 1008.1 |
| 20260902113643 | 19 | 299 | 8.0 | 20.9 | 0.00 | 0.00 | 0.00 | 70 | 1008.0 |
| 20260902113143 | 19 | 275 | 6.4 | 19.3 | 0.00 | 0.00 | 0.00 | 69 | 1008.1 |
| 20260902112643 | 19 | 213 | 8.0 | 19.3 | 0.00 | 0.00 | 0.00 | 70 | 1008.1 |
| 20260902112143 | 19 | 327 | 4.8 | 22.5 | 0.00 | 0.00 | 0.00 | 71 | 1008.1 |
| 20260902111642 | 19 | 240 | 3.2 | 22.5 | 0.00 | 0.00 | 0.00 | 71 | 1008.1 |
| 20260902111144 | 19 | 295 | 11.3 | 17.7 | 0.00 | 0.00 | 0.00 | 70 | 1008.2 |
| 20260902110906 | 19 | 275 | 8.0 | 24.1 | 0.00 | 0.00 | 0.00 | 70 | 1008.2 |
| 20260902110143 | 19 | 268 | 9.7 | 24.1 | 0.00 | 0.00 | 0.00 | 70 | 1008.2 |
| 20260902105641 | 19 | 285 | 8.0 | 16.1 | 0.00 | 0.00 | 0.00 | 70 | 1008.2 |
| 20260902105142 | 19 | 296 | 11.3 | 20.9 | 0.00 | 0.00 | 0.00 | 70 | 1008.2 |
| 20260902104643 | 18 | 258 | 8.0 | 20.9 | 0.00 | 0.00 | 0.00 | 70 | 1008.2 |
| 20260902104142 | 18 | 288 | 8.0 | 22.5 | 0.00 | 0.00 | 0.00 | 70 | 1008.3 |
| 20260902103631 | 18 | 305 | 12.9 | 22.5 | 0.00 | 0.00 | 0.00 | 70 | 1008.3 |
| 20260902103131 | 19 | 268 | 9.7 | 20.9 | 0.00 | 0.00 | 0.00 | 69 | 1008.2 |
| 20260902102631 | 20 | 268 | 6.4 | 16.1 | 0.00 | 0.00 | 0.00 | 69 | 1008.3 |
| 20260902102131 | 19 | 233 | 6.4 | 20.9 | 0.00 | 0.00 | 0.00 | 70 | 1008.4 |
| 20260902101853 | 19 | 281 | 9.7 | 20.9 | 0.00 | 0.00 | 0.00 | 71 | 1008.4 |
| 20260902101131 | 18 | 269 | 8.0 | 17.7 | 0.00 | 0.00 | 0.00 | 72 | 1008.4 |
| 20260902100631 | 18 | 285 | 6.4 | 16.1 | 0.00 | 0.00 | 0.00 | 72 | 1008.3 |
| 20260902100131 | 18 | 269 | 6.4 | 20.9 | 0.00 | 0.00 | 0.00 | 72 | 1008.4 |
| 20260902095631 | 18 | 268 | 9.7 | 20.9 | 0.00 | 0.00 | 0.00 | 71 | 1008.3 |
| 20260902095132 | 18 | 302 | 6.4 | 16.1 | 0.00 | 0.00 | 0.00 | 73 | 1008.4 |
| 20260902094632 | 18 | 309 | 4.8 | 16.1 | 0.00 | 0.00 | 0.00 | 72 | 1008.4 |
| 20260902094131 | 18 | 310 | 6.4 | 17.7 | 0.00 | 0.00 | 0.00 | 73 | 1008.5 |
| 20260902093858 | 18 | 281 | 9.7 | 17.7 | 0.00 | 0.00 | 0.00 | 72 | 1008.5 |
| 20260902093131 | 18 | 234 | 3.2 | 14.5 | 0.00 | 0.00 | 0.00 | 73 | 1008.5 |
| 20260902092631 | 18 | 221 | 4.8 | 16.1 | 0.00 | 0.00 | 0.00 | 73 | 1008.4 |
| 20260902092131 | 18 | 258 | 6.4 | 16.1 | 0.00 | 0.00 | 0.00 | 73 | 1008.4 |
| 20260902091604 | 18 | 262 | 3.2 | 16.1 | 0.00 | 0.00 | 0.00 | 75 | 1008.5 |
| 20260902091105 | 17 | 234 | 6.4 | 16.1 | 0.00 | 0.00 | 0.00 | 75 | 1008.5 |
| 20260902090605 | 18 | 268 | 9.7 | 16.1 | 0.00 | 0.00 | 0.00 | 73 | 1008.5 |
| 20260902090325 | 18 | 281 | 6.4 | 16.1 | 0.00 | 0.00 | 0.00 | 76 | 1008.4 |
| 20260902085604 | 18 | 221 | 4.8 | 9.7 | 0.00 | 0.00 | 0.00 | 75 | 1008.5 |
| 20260902085104 | 18 | 220 | 4.8 | 14.5 | 0.00 | 0.00 | 0.00 | 77 | 1008.4 |
| 20260902084605 | 17 | 288 | 6.4 | 14.5 | 0.00 | 0.00 | 0.00 | 77 | 1008.4 |
| 20260902084106 | 17 | 290 | 4.8 | 9.7 | 0.00 | 0.00 | 0.00 | 78 | 1008.4 |
| 20260902083604 | 17 | 234 | 3.2 | 16.1 | 0.00 | 0.00 | 0.00 | 79 | 1008.4 |
| 20260902083335 | 17 | 298 | 8.0 | 16.1 | 0.00 | 0.00 | 0.00 | 79 | 1008.4 |
| 20260902082605 | 17 | 266 | 6.4 | 11.3 | 0.00 | 0.00 | 0.00 | 79 | 1008.4 |
| 20260902082105 | 17 | 224 | 4.8 | 14.5 | 0.00 | 0.00 | 0.00 | 79 | 1008.4 |
| 20260902081604 | 17 | 269 | 8.0 | 14.5 | 0.00 | 0.00 | 0.00 | 80 | 1008.4 |
| 20260902081105 | 16 | 251 | 3.2 | 11.3 | 0.00 | 0.00 | 0.00 | 80 | 1008.4 |
| 20260902080605 | 16 | 203 | 3.2 | 9.7 | 0.00 | 0.00 | 0.00 | 81 | 1008.4 |
| 20260902080327 | 16 | 312 | 3.2 | 16.1 | 0.00 | 0.00 | 0.00 | 83 | 1008.4 |
| 20260902075604 | 16 | 295 | 9.7 | 16.1 | 0.00 | 0.00 | 0.00 | 83 | 1008.4 |
| 20260902075105 | 16 | 274 | 6.4 | 11.3 | 0.00 | 0.00 | 0.00 | 84 | 1008.4 |
| 20260902074605 | 16 | 278 | 6.4 | 14.5 | 0.00 | 0.00 | 0.00 | 84 | 1008.4 |
| 20260902074105 | 15 | 257 | 4.8 | 16.1 | 0.00 | 0.00 | 0.00 | 85 | 1008.4 |
| 20260902073605 | 15 | 251 | 9.7 | 16.1 | 0.00 | 0.00 | 0.00 | 84 | 1008.4 |
| 20260902073105 | 15 | 289 | 6.4 | 9.7 | 0.00 | 0.00 | 0.00 | 85 | 1008.4 |
| 20260902072605 | 15 | 278 | 8.0 | 9.7 | 0.00 | 0.00 | 0.00 | 85 | 1008.5 |
| 20260902072105 | 15 | 293 | 6.4 | 9.7 | 0.00 | 0.00 | 0.00 | 86 | 1008.5 |
| 20260902071605 | 15 | 293 | 3.2 | 9.7 | 0.00 | 0.00 | 0.00 | 87 | 1008.5 |
| 20260902071105 | 15 | 281 | 6.4 | 9.7 | 0.00 | 0.00 | 0.00 | 87 | 1008.5 |
| 20260902070605 | 15 | 302 | 4.8 | 14.5 | 0.00 | 0.00 | 0.00 | 88 | 1008.5 |
| 20260902070105 | 14 | 279 | 11.3 | 14.5 | 0.00 | 0.00 | 0.00 | 88 | 1008.4 |
| 20260902065605 | 14 | 271 | 6.4 | 14.5 | 0.00 | 0.00 | 0.00 | 88 | 1008.4 |
| 20260902065105 | 14 | 278 | 9.7 | 14.5 | 0.00 | 0.00 | 0.00 | 88 | 1008.4 |
| 20260902064605 | -17 | 271 | 8.0 | 11.3 | 0.00 | 0.00 | 0.00 | 1008.4 | |
| 20260902064104 | -17 | 0.0 | 0.0 | 0.00 | 0.00 | 0.00 | 1008.4 | ||
| 20260902063605 | -17 | 0.0 | 0.0 | 0.00 | 0.00 | 0.00 | 1008.3 | ||
| 20260902063328 | 14 | 255 | 6.4 | 9.7 | 0.00 | 0.00 | 0.00 | 91 | 1008.3 |
| 20260902062605 | 14 | 255 | 6.4 | 9.7 | 0.00 | 0.00 | 0.00 | 91 | 1008.4 |
| 20260902062104 | 14 | 266 | 6.4 | 9.7 | 0.00 | 0.00 | 0.00 | 91 | 1008.4 |
| 20260902061605 | 13 | 283 | 6.4 | 9.7 | 0.00 | 0.00 | 0.00 | 91 | 1008.3 |
| 20260902061104 | 13 | 288 | 6.4 | 9.7 | 0.00 | 0.00 | 0.00 | 92 | 1008.3 |
| 20260902060604 | 13 | 268 | 6.4 | 9.7 | 0.00 | 0.00 | 0.00 | 92 | 1008.3 |
| 20260902060106 | 13 | 295 | 6.4 | 9.7 | 0.00 | 0.00 | 0.00 | 93 | 1008.4 |
| 20260902055825 | 13 | 265 | 3.2 | 11.3 | 0.00 | 0.00 | 0.00 | 93 | 1008.2 |
| 20260902055101 | 13 | 288 | 6.4 | 11.3 | 0.00 | 0.00 | 0.00 | 93 | 1008.1 |
| 20260902054549 | 13 | 261 | 6.4 | 8.0 | 0.00 | 0.00 | 0.00 | 94 | 1008.2 |
| 20260902054044 | 13 | 282 | 3.2 | 8.0 | 0.00 | 0.00 | 0.00 | 94 | 1008.2 |
| 20260902053759 | 13 | 272 | 3.2 | 8.0 | 0.00 | 0.00 | 0.00 | 94 | 1008.2 |
| 20260902053031 | 13 | 275 | 4.8 | 8.0 | 0.00 | 0.00 | 0.00 | 94 | 1008.2 |
| 20260902052532 | 13 | 278 | 0.0 | 6.4 | 0.00 | 0.00 | 0.00 | 94 | 1008.2 |
| 20260902052031 | 13 | 278 | 0.0 | 6.4 | 0.00 | 0.00 | 0.00 | 94 | 1008.3 |
| 20260902051531 | 13 | 261 | 0.0 | 8.0 | 0.00 | 0.00 | 0.00 | 94 | 1008.3 |
| 20260902051032 | 13 | 259 | 1.6 | 8.0 | 0.00 | 0.00 | 0.00 | 94 | 1008.2 |
| 20260902050530 | 13 | 276 | 4.8 | 8.0 | 0.00 | 0.00 | 0.00 | 94 | 1008.2 |
| 20260902050252 | 13 | 254 | 0.0 | 9.7 | 0.00 | 0.00 | 0.00 | 94 | 1008.1 |
| 20260902045530 | 12 | 268 | 4.8 | 9.7 | 0.00 | 0.00 | 0.00 | 95 | 1008.1 |
| 20260902045030 | 12 | 300 | 4.8 | 11.3 | 0.00 | 0.00 | 0.00 | 95 | 1008.1 |
| 20260902044525 | 12 | 316 | 6.4 | 11.3 | 0.00 | 0.00 | 0.00 | 95 | 1008.2 |
| 20260902044026 | 12 | 281 | 3.2 | 8.0 | 0.00 | 0.00 | 0.00 | 95 | 1008.2 |
| 20260902043744 | 12 | 272 | 1.6 | 14.5 | 0.00 | 0.00 | 0.00 | 95 | 1008.1 |
| 20260902043239 | 12 | 283 | 4.8 | 14.5 | 0.00 | 0.00 | 0.00 | 95 | 1008.1 |
| 20260902042516 | 12 | 272 | 1.6 | 8.0 | 0.00 | 0.00 | 0.00 | 95 | 1008.2 |
| 20260902042016 | 12 | 282 | 3.2 | 8.0 | 0.00 | 0.00 | 0.00 | 95 | 1008.2 |
| 20260902041517 | 12 | 285 | 3.2 | 8.0 | 0.00 | 0.00 | 0.00 | 95 | 1008.1 |
| 20260902041015 | 12 | 254 | 0.0 | 6.4 | 0.00 | 0.00 | 0.00 | 95 | 1008.2 |
| 20260902040515 | 12 | 282 | 0.0 | 4.8 | 0.00 | 0.00 | 0.00 | 95 | 1008.1 |
| 20260902040016 | 12 | 282 | 1.6 | 9.7 | 0.00 | 0.00 | 0.00 | 95 | 1008.1 |
| 20260902035514 | 12 | 286 | 1.6 | 11.3 | 0.00 | 0.00 | 0.00 | 96 | 1008.1 |
| 20260902035014 | 12 | 272 | 4.8 | 11.3 | 0.00 | 0.00 | 0.00 | 96 | 1008.2 |
| 20260902034515 | 12 | 279 | 1.6 | 8.0 | 0.00 | 0.00 | 0.00 | 96 | 1008.2 |
| 20260902034014 | 12 | 288 | 4.8 | 8.0 | 0.00 | 0.00 | 0.00 | 96 | 1008.2 |
| 20260902033514 | 12 | 295 | 3.2 | 9.7 | 0.00 | 0.00 | 0.00 | 96 | 1008.2 |
| 20260902033014 | 12 | 266 | 1.6 | 9.7 | 0.00 | 0.00 | 0.00 | 96 | 1008.3 |
| 20260902032514 | 12 | 278 | 1.6 | 4.8 | 0.00 | 0.00 | 0.00 | 95 | 1008.3 |
| 20260902032233 | 12 | 279 | 0.0 | 4.8 | 0.00 | 0.00 | 0.00 | 96 | 1008.2 |
| 20260902031513 | 12 | 298 | 1.6 | 4.8 | 0.00 | 0.00 | 0.00 | 95 | 1008.3 |
| 20260902031014 | 12 | 278 | 0.0 | 4.8 | 0.00 | 0.00 | 0.00 | 95 | 1008.3 |
| 20260902030513 | 12 | 310 | 1.6 | 4.8 | 0.00 | 0.00 | 0.00 | 95 | 1008.3 |
| 20260902030013 | 12 | 290 | 1.6 | 4.8 | 0.00 | 0.00 | 0.00 | 95 | 1008.3 |
| 20260902025514 | 12 | 73 | 0.0 | 3.2 | 0.00 | 0.00 | 0.00 | 95 | 1008.3 |
| 20260902025012 | 12 | 73 | 0.0 | 0.0 | 0.00 | 0.00 | 0.00 | 96 | 1008.3 |
| 20260902024513 | 11 | 73 | 0.0 | 1.6 | 0.00 | 0.00 | 0.00 | 95 | 1008.3 |
| 20260902024013 | 11 | 73 | 0.0 | 3.2 | 0.00 | 0.00 | 0.00 | 95 | 1008.4 |
| 20260902023513 | 11 | 73 | 0.0 | 3.2 | 0.00 | 0.00 | 0.00 | 95 | 1008.4 |
| 20260902023013 | 11 | 73 | 0.0 | 0.0 | 0.00 | 0.00 | 0.00 | 95 | 1008.3 |
| 20260902022513 | 11 | 73 | 0.0 | 0.0 | 0.00 | 0.00 | 0.00 | 95 | 1008.3 |
| 20260902022008 | 11 | 73 | 0.0 | 0.0 | 0.00 | 0.00 | 0.00 | 95 | 1008.2 |
| 20260902021503 | 11 | 73 | 0.0 | 0.0 | 0.00 | 0.00 | 0.00 | 95 | 1008.3 |
| 20260902021005 | 11 | 73 | 0.0 | 0.0 | 0.00 | 0.00 | 0.00 | 95 | 1008.2 |
| 20260902020505 | 11 | 73 | 0.0 | 0.0 | 0.00 | 0.00 | 0.00 | 95 | 1008.3 |
| 20260902020007 | 11 | 73 | 0.0 | 0.0 | 0.00 | 0.00 | 0.00 | 95 | 1008.2 |
| 20260902015505 | 11 | 73 | 0.0 | 0.0 | 0.00 | 0.00 | 0.00 | 95 | 1008.2 |
| 20260902015006 | 11 | 73 | 0.0 | 0.0 | 0.00 | 0.00 | 0.00 | 95 | 1008.2 |
| 20260902014506 | 11 | 73 | 0.0 | 0.0 | 0.00 | 0.00 | 0.00 | 95 | 1008.2 |
| 20260902014005 | 11 | 73 | 0.0 | 0.0 | 0.00 | 0.00 | 0.00 | 95 | 1008.1 |
| 20260902013506 | 11 | 73 | 0.0 | 0.0 | 0.00 | 0.00 | 0.00 | 95 | 1008.2 |
| 20260902013005 | 11 | 73 | 0.0 | 0.0 | 0.00 | 0.00 | 0.00 | 95 | 1008.2 |
| 20260902012505 | 11 | 73 | 0.0 | 0.0 | 0.00 | 0.00 | 0.00 | 95 | 1008.2 |
| 20260902012006 | 11 | 73 | 0.0 | 0.0 | 0.00 | 0.00 | 0.00 | 95 | 1008.2 |
| 20260902011504 | 11 | 73 | 0.0 | 0.0 | 0.00 | 0.00 | 0.00 | 95 | 1008.2 |
| 20260902011227 | 11 | 73 | 0.0 | 0.0 | 0.00 | 0.00 | 0.00 | 94 | 1008.2 |
| 20260902010505 | 11 | 73 | 0.0 | 0.0 | 0.00 | 0.00 | 0.00 | 95 | 1008.3 |
| 20260902010005 | 12 | 73 | 0.0 | 0.0 | 0.00 | 0.00 | 0.00 | 95 | 1008.3 |
| 20260902005504 | 12 | 73 | 0.0 | 0.0 | 0.00 | 0.00 | 0.00 | 95 | 1008.1 |
| 20260902005006 | 12 | 73 | 0.0 | 0.0 | 0.00 | 0.00 | 0.00 | 95 | 1008.2 |
| 20260902004505 | 12 | 73 | 0.0 | 0.0 | 0.00 | 0.00 | 0.00 | 94 | 1008.2 |
| 20260902004004 | 11 | 73 | 0.0 | 0.0 | 0.00 | 0.00 | 0.00 | 94 | 1008.2 |
| 20260902003723 | 12 | 73 | 0.0 | 0.0 | 0.00 | 0.00 | 0.00 | 94 | 1008.2 |
| 20260902003006 | 12 | 73 | 0.0 | 0.0 | 0.00 | 0.00 | 0.00 | 95 | 1008.2 |
| 20260902002505 | 12 | 73 | 0.0 | 0.0 | 0.00 | 0.00 | 0.00 | 95 | 1008.2 |
| 20260902002452 | 12 | 73 | 0.0 | 0.0 | 0.00 | 0.00 | 0.00 | 94 | 1008.2 |
| 20260902001506 | 12 | 73 | 0.0 | 0.0 | 0.00 | 0.00 | 0.00 | 94 | 1008.2 |
| 20260902001231 | 12 | 73 | 0.0 | 0.0 | 0.00 | 0.00 | 0.00 | 94 | 1008.0 |
| 20260902000505 | 12 | 73 | 0.0 | 0.0 | 0.00 | 0.00 | 0.00 | 94 | 1008.1 |
| 20260902000005 | 12 | 73 | 0.0 | 0.0 | 0.00 | 0.00 | 0.00 | 94 | 1008.2 |
| 20260901235728 | 12 | 73 | 0.0 | 0.0 | 0.00 | 0.00 | 0.00 | 94 | 1008.1 |
| 20260901235005 | 12 | 73 | 0.0 | 0.0 | 0.00 | 0.00 | 0.00 | 94 | 1008.2 |
| 20260901234506 | 12 | 73 | 0.0 | 0.0 | 0.00 | 0.00 | 0.00 | 94 | 1008.2 |
| 20260901234005 | 12 | 73 | 0.0 | 0.0 | 0.00 | 0.00 | 0.00 | 94 | 1008.2 |
| 20260901233505 | 12 | 73 | 0.0 | 0.0 | 0.00 | 0.00 | 0.00 | 94 | 1008.2 |
| 20260901233005 | 12 | 73 | 0.0 | 0.0 | 0.00 | 0.00 | 0.00 | 94 | 1008.2 |
| 20260901232725 | 12 | 73 | 0.0 | 0.0 | 0.00 | 0.00 | 0.00 | 94 | 1008.3 |
| 20260901232005 | 12 | 73 | 0.0 | 0.0 | 0.00 | 0.00 | 0.00 | 94 | 1008.3 |
| 20260901231724 | 12 | 73 | 0.0 | 0.0 | 0.00 | 0.00 | 0.00 | 94 | 1008.3 |
| 20260901231005 | 12 | 73 | 0.0 | 0.0 | 0.00 | 0.00 | 0.00 | 94 | 1008.3 |
| 20260901230730 | 12 | 73 | 0.0 | 0.0 | 0.00 | 0.00 | 0.00 | 94 | 1008.4 |
| 20260901230006 | 12 | 73 | 0.0 | 0.0 | 0.00 | 0.00 | 0.00 | 94 | 1008.3 |
| 20260901225736 | 13 | 73 | 0.0 | 0.0 | 0.00 | 0.00 | 0.00 | 94 | 1008.4 |
| 20260901225005 | 13 | 73 | 0.0 | 0.0 | 0.00 | 0.00 | 0.00 | 94 | 1008.3 |
| 20260901224956 | 13 | 73 | 0.0 | 0.0 | 0.00 | 0.00 | 0.00 | 94 | 1008.3 |
| 20260901224005 | 13 | 73 | 0.0 | 0.0 | 0.00 | 0.00 | 0.00 | 94 | 1008.3 |
| 20260901223505 | 13 | 73 | 0.0 | 0.0 | 0.00 | 0.00 | 0.00 | 94 | 1008.4 |
| 20260901223006 | 13 | 73 | 0.0 | 0.0 | 0.00 | 0.00 | 0.00 | 94 | 1008.3 |
| 20260901222505 | 13 | 73 | 0.0 | 0.0 | 0.00 | 0.00 | 0.00 | 94 | 1008.3 |
| 20260901222005 | 13 | 73 | 0.0 | 0.0 | 0.00 | 0.00 | 0.00 | 94 | 1008.3 |
| 20260901221505 | 13 | 73 | 0.0 | 0.0 | 0.00 | 0.00 | 0.00 | 94 | 1008.4 |
| 20260901221227 | 13 | 73 | 0.0 | 0.0 | 0.00 | 0.00 | 0.00 | 94 | 1008.3 |
| 20260901220505 | 13 | 73 | 0.0 | 0.0 | 0.00 | 0.00 | 0.00 | 94 | 1008.4 |
| 20260901220006 | 13 | 73 | 0.0 | 0.0 | 0.00 | 0.00 | 0.00 | 93 | 1008.5 |
| 20260901215505 | 13 | 73 | 0.0 | 0.0 | 0.00 | 0.00 | 0.00 | 93 | 1008.4 |
| 20260901215005 | 13 | 73 | 0.0 | 0.0 | 0.00 | 0.00 | 0.00 | 93 | 1008.3 |
| 20260901214504 | 13 | 73 | 0.0 | 0.0 | 0.00 | 0.00 | 0.00 | 93 | 1008.4 |
| 20260901214005 | 13 | 73 | 0.0 | 0.0 | 0.00 | 0.00 | 0.00 | 93 | 1008.4 |
| 20260901213718 | 13 | 73 | 0.0 | 0.0 | 0.00 | 0.00 | 0.00 | 94 | 1008.3 |
| 20260901212957 | 13 | 73 | 0.0 | 0.0 | 0.00 | 0.00 | 0.00 | 93 | 1008.3 |
| 20260901212452 | 13 | 73 | 0.0 | 0.0 | 0.00 | 0.00 | 0.00 | 93 | 1008.4 |
| 20260901212221 | 14 | 73 | 0.0 | 0.0 | 0.00 | 0.00 | 0.00 | 93 | 1008.3 |
| 20260901211446 | 14 | 73 | 0.0 | 0.0 | 0.00 | 0.00 | 0.00 | 93 | 1008.3 |
| 20260901210945 | 14 | 73 | 0.0 | 0.0 | 0.00 | 0.00 | 0.00 | 93 | 1008.4 |
| 20260901210446 | 14 | 73 | 0.0 | 0.0 | 0.00 | 0.00 | 0.00 | 93 | 1008.3 |
| 20260901205942 | 14 | 73 | 0.0 | 0.0 | 0.00 | 0.00 | 0.00 | 92 | 1008.3 |
| 20260901205441 | 14 | 73 | 0.0 | 0.0 | 0.00 | 0.00 | 0.00 | 92 | 1008.3 |
| 20260901205432 | 14 | 73 | 0.0 | 0.0 | 0.00 | 0.00 | 0.00 | 92 | 1008.4 |